Location: Sternwarte ZA, Rosenfeld-Brittheim
(48.2889°N, 8.6789°E)
Time: 20:34:18
(UTC+02:00)

ISS - Pass Details

Date: 17 July 2019
Orbit: 409 x 418 km, 51.6° (Epoch: 20 July)

Event Time Altitude Azimuth Distance (km) Brightness Sun altitude
Rises 02:17:22 0° 283° (WNW) 2,349 0.1 -19.7°
Reaches altitude 10° 02:19:31 10° 289° (WNW) 1,485 -0.9 -19.6°
Maximum altitude 02:22:45 46° 4° (N) 568 -2.7 -19.5°
Drops below altitude 10° 02:25:57 10° 80° (E) 1,480 -0.7 -19.4°
Sets 02:28:06 0° 86° (E) 2,339 0.3 -19.3°
